Weather History for Debrecen, Hungary

Change the Weather History Date:

Saturday, August 30, 2014

  Actual Average Record
Temperature  
Mean Temperature 64 °F -  
Max Temperature 80 °F 72 °F - ()
Min Temperature 48 °F 51 °F - ()
Degree Days  
Heating Degree Days 1    
Growing Degree Days 14 (Base 50)    
Moisture  
Dew Point 50 °F    
Average Humidity 54    
Maximum Humidity 94    
Minimum Humidity 24    
Precipitation  
Precipitation 0.00 in 0.05 in - ()
Sea Level Pressure  
Sea Level Pressure 30.09 in    
Wind  
Wind Speed 3 mph ()    
Max Wind Speed 7 mph    
Max Gust Speed -    
Visibility 14.6 miles    
Events      
T = Trace of Precipitation, MM = Missing Value Source: Averaged Metar Reports

Daily Weather History Graph

Daily Weather History Graph

Search for Another Location

Airport:

Trip Planner

Search our weather history database for the weather conditions in past years. The results will help you decide how hot, cold, wet, or windy it might be!

Date:

Astronomy

Aug. 30, 2014 Rise Set
Actual Time 5:49 AM CEST 7:18 PM CEST
Civil Twilight 5:17 AM CEST 7:50 PM CEST
Nautical Twilight 4:38 AM CEST 8:29 PM CEST
Astronomical Twilight 3:55 AM CEST 9:10 PM CEST
Moon 10:40 AM CEST (8/30) 9:18 PM CEST (8/30)
Length of Visible Light 14h 33m
Length of Day
13h 29m
Waxing Crescent, 20% of the Moon is Illuminated
Aug 30
Waxing Crescent
Sep 2
First Quarter
Sep 9
Full
Sep 16
Last Quarter
Sep 24
New

Hourly Weather History & Observations

Time (CEST) Temp. Dew Point Humidity Pressure Visibility Wind Dir Wind Speed Gust Speed Precip Events Conditions
12:00 AM 57 °F 49 °F 67% 30.11 in - East 2.2 mph - -  
1:00 AM 55 °F 48 °F 71% 30.11 in - ENE 2.2 mph - -  
2:00 AM 54 °F 48 °F 75% 30.11 in - ENE 2.2 mph - -  
3:00 AM 52 °F 47 °F 76% 30.12 in - Calm Calm - -  
4:00 AM 50 °F 47 °F 85% 30.12 in - East 4.5 mph - -  
4:45 AM 51.8 °F 48.2 °F 88% 30.09 in - NE 2.3 mph - N/A   Clear
5:00 AM 51 °F 47 °F 83% 30.11 in 12 mi NE 2.2 mph - -   Partly Cloudy
5:15 AM 51.8 °F 46.4 °F 82% 30.09 in - ENE 2.3 mph - N/A   Clear
6:00 AM 50 °F 46 °F 83% 30.12 in 12 mi Calm Calm - -   Partly Cloudy
6:15 AM 50.0 °F 46.4 °F 87% 30.12 in - East 2.3 mph - N/A   Clear
6:45 AM 50.0 °F 48.2 °F 94% 30.12 in - East 1.2 mph - N/A   Clear
7:00 AM 50 °F 47 °F 87% 30.12 in 12 mi East 2.2 mph - -   Partly Cloudy
7:15 AM 53.6 °F 50.0 °F 88% 30.12 in - East 2.3 mph - N/A   Clear
7:45 AM 57.2 °F 51.8 °F 82% 30.12 in - ESE 1.2 mph - N/A   Clear
8:00 AM 57 °F 51 °F 74% 30.12 in 12 mi ESE 2.2 mph - -   Partly Cloudy
8:15 AM 60.8 °F 51.8 °F 72% 30.12 in - SE 1.2 mph - N/A   Clear
8:45 AM 64.4 °F 51.8 °F 64% 30.12 in - SE 2.3 mph - N/A   Clear
9:00 AM 64 °F 52 °F 56% 30.12 in 16 mi SE 2.2 mph - -   Partly Cloudy
9:15 AM 66.2 °F 51.8 °F 60% 30.12 in - SSW 3.5 mph - N/A   Clear
10:00 AM 69 °F 53 °F 45% 30.12 in 19 mi South 2.2 mph - -   Partly Cloudy
10:00 AM - - N/A% - - Variable 3.5 mph - N/A   Clear
10:15 AM 71.6 °F 53.6 °F 53% 30.12 in - South 3.5 mph - N/A   Clear
10:45 AM 73.4 °F 53.6 °F 50% 30.12 in - South 4.6 mph - N/A   Clear
11:00 AM 74 °F 53 °F 38% 30.11 in 19 mi South 4.5 mph - -   Partly Cloudy
11:15 AM 75.2 °F 50.0 °F 41% 30.12 in - SSW 5.8 mph - N/A   Clear
11:45 AM 77.0 °F 48.2 °F 36% 30.12 in - SW 6.9 mph - N/A   Clear
12:00 PM 76 °F 49 °F 27% 30.10 in 22 mi SW 6.7 mph - -   Partly Cloudy
12:15 PM 75.2 °F 50.0 °F 41% 30.12 in - South 5.8 mph - N/A   Clear
12:45 PM 77.0 °F 50.0 °F 39% 30.09 in - West 5.8 mph - N/A   Clear
1:00 PM 77 °F 50 °F 28% 30.09 in 22 mi West 6.7 mph - -   Partly Cloudy
1:00 PM - - N/A% - - SSW 6.9 mph - N/A   Clear
1:15 PM 77.0 °F 50.0 °F 39% 30.09 in - West 3.5 mph - N/A   Clear
1:45 PM 78.8 °F 50.0 °F 36% 30.09 in - NNE 2.3 mph - N/A   Clear
2:00 PM 78 °F 51 °F 28% 30.08 in 25 mi NNE 2.2 mph - -   Partly Cloudy
2:15 PM 78.8 °F 50.0 °F 36% 30.09 in - SSW 4.6 mph - N/A   Clear
2:45 PM 78.8 °F 50.0 °F 36% 30.06 in - NW 3.5 mph - N/A   Clear
3:00 PM 79 °F 49 °F 25% 30.06 in 25 mi NW 2.2 mph - -   Partly Cloudy
3:15 PM 78.8 °F 50.0 °F 36% 30.06 in - SSE 3.5 mph - N/A   Clear
3:45 PM 80.6 °F 50.0 °F 34% 30.06 in - WSW 3.5 mph - N/A   Clear
4:00 PM 80 °F 50 °F 24% 30.05 in 25 mi WSW 2.2 mph - -   Partly Cloudy
4:15 PM 80.6 °F 50.0 °F 34% 30.06 in - SSW 2.3 mph - N/A   Clear
5:00 PM 80 °F 50 °F 24% 30.03 in - ESE 4.5 mph - -  
6:00 PM 79 °F 51 °F 26% 30.03 in - WSW 2.2 mph - -  
6:00 PM - - N/A% - - North - - N/A   Unknown
7:00 PM 77 °F 51 °F 29% 30.03 in - SSW 4.5 mph - -  
8:00 PM 72 °F 52 °F 38% 30.03 in - SE 2.2 mph - -  
9:00 PM 67 °F 54 °F 54% 30.03 in - Calm Calm - -  
10:00 PM 66 °F 54 °F 56% 30.04 in - ENE 2.2 mph - -  
11:00 PM 65 °F 54 °F 60% 30.04 in - Calm Calm - -